This is the latest recevied weather packets stored in our database for station/object N9ALD. If no packets are shown the sender has not sent any weather packets the latest 10 day(s).
| Time | Temp. | Humidity | Pressure | Rain* | Wind** | Luminosity | Snow |
|---|---|---|---|---|---|---|---|
| 1777499193 | 16.11° C | 56% | 1009.4 hPa | 0 mm | - | 112 W/m² | - |
| 1777498889 | 16.11° C | 57% | 1009.4 hPa | 0 mm | - | 281 W/m² | - |
| 1777498586 | 16.67° C | 54% | 1009.4 hPa | 0 mm | - | 120 W/m² | - |
| 1777498282 | 16.67° C | 53% | 1009.2 hPa | 0 mm | - | 112 W/m² | - |
| 1777497981 | 16.67° C | 53% | 1009.4 hPa | 0 mm | - | 423 W/m² | - |
| 1777497676 | 16.11° C | 57% | 1009.1 hPa | 0 mm | - | 434 W/m² | - |
| 1777497373 | 16.11° C | 59% | 1009.2 hPa | 0 mm | - | 130 W/m² | - |
| 1777497068 | 16.11° C | 56% | 1009.2 hPa | 0 mm | - | 439 W/m² | - |
| 1777496765 | 16.11° C | 59% | 1009.4 hPa | 0 mm | - | 547 W/m² | - |
| 1777496462 | 16.67° C | 58% | 1009.3 hPa | 0 mm | - | 552 W/m² | - |
| 1777496159 | 16.67° C | 59% | 1009.4 hPa | 0 mm | - | 518 W/m² | - |
| 1777495855 | 16.67° C | 61% | 1009.4 hPa | 0 mm | - | 526 W/m² | - |
| 1777495551 | 16.67° C | 58% | 1009.4 hPa | 0 mm | - | 149 W/m² | - |
| 1777495247 | 16.67° C | 58% | 1009.4 hPa | 0 mm | - | 226 W/m² | - |
| 1777494945 | 16.67° C | 57% | 1009.4 hPa | 0 mm | - | 150 W/m² | - |
| 1777494642 | 16.67° C | 63% | 1009.3 hPa | 0 mm | - | 592 W/m² | - |
| 1777494339 | 16.11° C | 63% | 1009.6 hPa | 0 mm | - | 218 W/m² | - |
| 1777494035 | 16.67° C | 61% | 1009.4 hPa | 0 mm | - | 178 W/m² | - |
| 1777493733 | 16.67° C | 58% | 1009.6 hPa | 0 mm | - | 159 W/m² | - |
| 1777493432 | 16.67° C | 59% | 1009.5 hPa | 0 mm | - | 259 W/m² | - |
| 1777493127 | 16.67° C | 56% | 1009.4 hPa | 0 mm | - | 208 W/m² | - |
| 1777492824 | 16.67° C | 58% | 1009.4 hPa | 0 mm | - | 575 W/m² | - |
| 1777492520 | 16.67° C | 64% | 1009.5 hPa | 0 mm | - | 641 W/m² | - |
| 1777492216 | 17.22° C | 60% | 1009.6 hPa | 0 mm | - | 160 W/m² | - |
| 1777491914 | 17.22° C | 62% | 1009.3 hPa | 0 mm | - | 814 W/m² | - |
* Rain latest hour (hover to see other rain measurements)
** Current wind speed in m/s (hover to see current wind gust speed)